Worcester, MA

6:41 PM EDT on July 27, 2016 (GMT -0400)
Worcester Regional

Weather History for KORH - May, 2013

Change the Weather History Date:

Thursday, May 30, 2013

  Actual Average Record
Temperature  
Mean Temperature 73 °F 60 °F  
Max Temperature 84 °F 70 °F 91 °F (1929)
Min Temperature 61 °F 51 °F 36 °F (1961)
Degree Days  
Heating Degree Days 0 6  
Month to date heating degree days 249 281  
Since 1 July heating degree days 6212 6628  
Cooling Degree Days 8 1  
Month to date cooling degree days 11 15  
Year to date cooling degree days 11 18  
Growing Degree Days 23 (Base 50)    
Moisture  
Dew Point 64 °F    
Average Humidity 76    
Maximum Humidity 100    
Minimum Humidity 51    
Precipitation  
Precipitation 0.00 in 0.15 in 1.85 in (1908)
Month to date precipitation 4.45 4.04  
Year to date precipitation 16.81 19.08  
Snow  
Snow 0.00 in 0.00 in 0.00 in (2015)
Month to date snowfall 0.0 0.0  
Since 1 July snowfall 108.9 64.1  
Snow Depth 0.00 in    
Sea Level Pressure  
Sea Level Pressure 30.08 in    
Wind  
Wind Speed 11 mph (West)    
Max Wind Speed 18 mph    
Max Gust Speed 25 mph    
Visibility 10 miles    
Events      
T = Trace of Precipitation, MM = Missing Value Source: NWS Daily Summary

Daily Weather History Graph

Daily Weather History Graph

Search for Another Location

Airport or City:

Trip Planner

Search our weather history database for the weather conditions in past years. The results will help you decide how hot, cold, wet, or windy it might be!

Date:

Astronomy

May. 30, 2013 Rise Set
Actual Time 5:14 AM EDT 8:16 PM EDT
Civil Twilight 4:40 AM EDT 8:49 PM EDT
Nautical Twilight 3:57 AM EDT 9:32 PM EDT
Astronomical Twilight 3:07 AM EDT 10:23 PM EDT
Moon 12:11 AM EDT (5/30) 11:23 AM EDT (5/30)
Length of Visible Light 16h 09m
Length of Day
15h 01m
Waning Gibbous, 62% of the Moon is Illuminated
May 30
Waning Gibbous
May 31
Last Quarter
Jun 8
New
Jun 16
First Quarter
Jun 23
Full

Hourly Weather History & Observations

Time (EDT) Temp. Heat Index Dew Point Humidity Pressure Visibility Wind Dir Wind Speed Gust Speed Precip Events Conditions
12:54 AM 62.1 °F - 61.0 °F 96% 30.07 in 10.0 mi WSW 10.4 mph - N/A   Clear
1:54 AM 62.1 °F - 61.0 °F 96% 30.06 in 10.0 mi WSW 6.9 mph - N/A   Clear
2:54 AM 62.1 °F - 61.0 °F 96% 30.06 in 10.0 mi West 9.2 mph - N/A   Partly Cloudy
3:54 AM 63.0 °F - 61.0 °F 93% 30.06 in 10.0 mi West 10.4 mph - N/A   Clear
4:54 AM 63.0 °F - 62.1 °F 97% 30.06 in 10.0 mi West 12.7 mph - N/A   Clear
5:54 AM 64.0 °F - 62.1 °F 93% 30.08 in 10.0 mi West 11.5 mph - N/A   Clear
6:54 AM 64.9 °F - 63.0 °F 93% 30.09 in 10.0 mi West 10.4 mph - N/A   Clear
7:54 AM 69.1 °F - 64.0 °F 84% 30.10 in 10.0 mi West 13.8 mph - N/A   Clear
8:54 AM 72.0 °F - 64.9 °F 78% 30.11 in 10.0 mi West 15.0 mph 23.0 mph N/A   Clear
9:54 AM 75.0 °F - 64.9 °F 71% 30.12 in 10.0 mi West 11.5 mph - N/A   Clear
10:54 AM 77.0 °F - 64.9 °F 66% 30.11 in 10.0 mi WNW 16.1 mph - N/A   Clear
11:54 AM 78.1 °F - 64.9 °F 64% 30.12 in 10.0 mi WNW 15.0 mph - N/A   Clear
12:54 PM 80.1 °F 81.9 °F 64.9 °F 60% 30.11 in 10.0 mi West 12.7 mph - N/A   Scattered Clouds
1:54 PM 81.0 °F 83.0 °F 66.0 °F 60% 30.09 in 10.0 mi West 10.4 mph 21.9 mph N/A   Clear
2:54 PM 82.9 °F 84.6 °F 64.9 °F 54% 30.09 in 10.0 mi West 13.8 mph 20.7 mph N/A   Clear
3:54 PM 82.9 °F 84.6 °F 64.9 °F 54% 30.07 in 10.0 mi West 9.2 mph - N/A   Scattered Clouds
4:54 PM 82.9 °F 84.4 °F 64.0 °F 53% 30.06 in 10.0 mi West 11.5 mph - N/A   Clear
5:54 PM 84.0 °F 85.4 °F 64.0 °F 51% 30.06 in 10.0 mi WNW 9.2 mph - N/A   Partly Cloudy
6:54 PM 82.9 °F 84.4 °F 64.0 °F 53% 30.06 in 10.0 mi West 8.1 mph - N/A   Clear
7:54 PM 78.1 °F - 64.9 °F 64% 30.06 in 10.0 mi West 6.9 mph - N/A   Clear
8:54 PM 75.9 °F - 64.9 °F 69% 30.08 in 10.0 mi West 8.1 mph - N/A   Clear
9:54 PM 73.9 °F - 64.0 °F 71% 30.08 in 10.0 mi West 9.2 mph - N/A   Clear
10:54 PM 73.0 °F - 63.0 °F 71% 30.09 in 10.0 mi West 5.8 mph - N/A   Clear
11:54 PM 70.0 °F - 64.0 °F 81% 30.09 in 10.0 mi WSW 6.9 mph - N/A   Clear